ONEWEB-0088, 45457

Orbit data source: Space-Track

ONEWEB-0088, 45457 is a payload satellite owned by One Web (UK) in LEO that was launched on Sat, 21 Mar 2020 UTC via a SOYUZ-2-1B launch vehicle from the Tyuratam Missile And Space Complex (TTMTR). Payload-class satellites include a variety of spacecraft equipped with specific instruments for various scientific and technological missions. These include communications satellites like Starlink; space stations such as the ISS; scientific satellites like the Hubble; Earth observation satellites from companies like Planet Labs, Umbra, and HawkEye 360; GPS; miniature CubeSats for education and research; and military/defense satellites.

Loading next visibility...
Identifier
45457, 2020-020AK
Orbit
LEO
Country
Flag of UKUK
Related business
Manufacturer
One Web
Mission
Operational Commercial Communications
Bus & Motor
ARROW, Unknown motor
Mass
148 kg wet, ~140 kg dry
Launch date (UTC)
2020-03-21 (6 years ago)
Launch vehicle
SOYUZ-2-1B
Launch site
Tyuratam Missile And Space Complex (TTMTR)
Object type
Payload
Rocket body
Debris
Shape & HBR
Trap Box + 2 Pan, 6.7 m
Radar Cross Section
3.464 m², Large (>1 m²)

Expand to show TLE details & history
Last TLE update: 6 hours ago

TLE from 6 hours ago
0 ONEWEB-0088
1 45457U 20020AK  26126.47170892 -.00003017  00000-0 -85496-2 0  9991
2 45457  87.8938  29.3236 0001966  95.3436 264.7917 13.11433770297078
Epoch: 2026-05-06T11:19Z
TLE epoch observation values (Epoch: 2026-05-06T11:19:15.650Z)
Latitude
0.00004°
Longitude
-4.82333°
Altitude
1,220.643 km
Speed
7.244 km/s
True Right ascension
01h 57m 17s
True Declination
0° 00' 00"
Sunlit
Object was in daylight at epoch
Visualization orbit readout
Latitude
Unknown
Longitude
Unknown
Altitude
Unknown
Speed
Unknown
Apparent Right ascension
Unknown
Apparent Declination
Unknown
Sunlit
N/A
Visualization observer readout
Local Sidereal Time
00:57:03
Azimuth
Unknown
Elevation
Unknown
Doppler factor
Unknown
Orbital elements
Apogee altitude
1,216.229 km
Perigee altitude
1,213.243 km
Semi-major axis
7,592.873 km
Eccentricity
0.0002
Inclination
87.8938°
RAAN
29.3236°
Arg. of periapsis
95.3436°
True anomaly
264.76926°
Mean anomaly
264.7917°
Eccentric anomaly
264.78048°
Mean motion
3.28045 °/min
Orbital period
109.74 mins
BSTAR
-0.0085496
Loading maneuver chart data...
Computing Atmospheric mass density...
Loading historical data...
Loading historical data...
Loading historical data...
Loading historical data...
Loading historical data...
Loading historical data...
Loading historical data...

Documentation

Showing up to 5 results
|